Weather History for Bellaire, MI

Change the Weather History Date:

Wednesday, March 6, 2013

  Actual Average (KTVC) Record (KTVC)
Temperature  
Mean Temperature 33 °F 27 °F  
Max Temperature 40 °F 36 °F 68 °F (2000)
Min Temperature 26 °F 18 °F -16 °F (1972)
Degree Days  
Heating Degree Days 32 38  
Month to date heating degree days 232  
Since 1 July heating degree days 5572  
Cooling Degree Days 0 0  
Month to date cooling degree days 0  
Year to date cooling degree days 0  
Moisture  
Dew Point 26 °F    
Average Humidity 75    
Maximum Humidity 90    
Minimum Humidity 59    
Precipitation  
Precipitation 0.00 in 0.06 in 1.03 in (1959)
Month to date precipitation 0.35  
Year to date precipitation 4.67  
Sea Level Pressure  
Sea Level Pressure 30.15 in    
Wind  
Wind Speed 4 mph (North)    
Max Wind Speed 10 mph    
Max Gust Speed 16 mph    
Visibility 9 miles    
Events      
T = Trace of Precipitation, MM = Missing Value Source: NWS Daily Summary

Daily Weather History Graph

Daily Weather History Graph

Search for Another Location

Airport:

Trip Planner

Search our weather history database for the weather conditions in past years. The results will help you decide how hot, cold, wet, or windy it might be!

Date:

Astronomy

Mar. 06, 2013 Rise Set
Actual Time 7:09 AM EST 6:35 PM EST
Civil Twilight 6:40 AM EST 7:04 PM EST
Nautical Twilight 6:06 AM EST 7:38 PM EST
Astronomical Twilight 5:31 AM EST 8:12 PM EST
Moon 3:29 AM EST (3/6) 1:05 PM EST (3/6)
Length of Visible Light 12h 24m
Length of Day
11h 26m
Waning Crescent, 30% of the Moon is Illuminated
Mar 6
Waning Crescent
Mar 11
New
Mar 19
First Quarter
Mar 27
Full
Apr 3
Last Quarter

Hourly Weather History & Observations

Time (EST) Temp. Windchill Dew Point Humidity Pressure Visibility Wind Dir Wind Speed Gust Speed Precip Events Conditions
12:14 AM 26.6 °F 22.6 °F 19.4 °F 74% 30.05 in 10.0 mi North 3.5 mph - N/A   Overcast
12:35 AM 27.0 °F 23.0 °F 19.9 °F 75% 30.05 in 10.0 mi North 3.5 mph - N/A   Overcast
12:54 AM 27.5 °F 22.2 °F 20.3 °F 74% 30.05 in 10.0 mi North 4.6 mph - N/A   Overcast
1:14 AM 27.3 °F 23.4 °F 20.3 °F 75% 30.05 in 10.0 mi North 3.5 mph - N/A   Overcast
1:35 AM 27.5 °F 23.6 °F 20.7 °F 75% 30.05 in 10.0 mi North 3.5 mph - N/A   Overcast
1:54 AM 27.9 °F 24.0 °F 21.0 °F 75% 30.06 in 10.0 mi North 3.5 mph - N/A   Overcast
2:14 AM 28.0 °F 24.2 °F 21.4 °F 76% 30.06 in 10.0 mi North 3.5 mph - N/A   Overcast
2:35 AM 28.4 °F 23.3 °F 22.1 °F 77% 30.06 in 10.0 mi North 4.6 mph - N/A   Overcast
2:54 AM 29.1 °F 23.0 °F 23.0 °F 78% 30.06 in 10.0 mi North 5.8 mph - N/A   Overcast
3:15 AM 29.3 °F 23.2 °F 23.4 °F 78% 30.06 in 10.0 mi North 5.8 mph - N/A   Overcast
3:34 AM 29.3 °F 24.3 °F 23.7 °F 80% 30.06 in 10.0 mi North 4.6 mph - N/A   Overcast
3:54 AM 29.8 °F 23.9 °F 24.1 °F 79% 30.06 in 10.0 mi NNE 5.8 mph - N/A   Overcast
4:15 AM 30.2 °F 22.6 °F 24.6 °F 80% 30.07 in 10.0 mi NNE 8.1 mph - N/A   Overcast
4:34 AM 30.7 °F 24.1 °F 24.8 °F 79% 30.07 in 10.0 mi NNE 6.9 mph - N/A   Overcast
4:55 AM 31.1 °F 24.5 °F 25.2 °F 79% 30.08 in 10.0 mi NNE 6.9 mph - N/A   Overcast
5:15 AM 31.1 °F 23.1 °F 25.5 °F 80% 30.09 in 10.0 mi NNE 9.2 mph - N/A   Overcast
5:34 AM 31.3 °F 24.7 °F 25.5 °F 79% 30.10 in 10.0 mi NNE 6.9 mph - N/A   Overcast
5:55 AM 31.5 °F 25.8 °F 25.5 °F 79% 30.11 in 10.0 mi NNE 5.8 mph - N/A   Overcast
6:15 AM 31.5 °F 28.1 °F 25.5 °F 79% 30.13 in 10.0 mi North 3.5 mph - N/A   Overcast
6:34 AM 31.5 °F 25.8 °F 25.5 °F 79% 30.13 in 10.0 mi North 5.8 mph - N/A   Overcast
6:55 AM 31.1 °F 23.7 °F 25.5 °F 80% 30.14 in 10.0 mi NNE 8.1 mph - N/A   Overcast
7:15 AM 31.3 °F 25.6 °F 25.5 °F 79% 30.14 in 10.0 mi North 5.8 mph - N/A   Overcast
7:34 AM 31.1 °F 26.4 °F 25.5 °F 80% 30.15 in 10.0 mi North 4.6 mph - N/A   Overcast
7:55 AM 31.5 °F 26.8 °F 25.7 °F 79% 30.16 in 10.0 mi North 4.6 mph - N/A   Overcast
8:15 AM 32.0 °F 25.6 °F 25.7 °F 78% 30.16 in 10.0 mi NNE 6.9 mph - N/A   Overcast
8:34 AM 32.2 °F 26.7 °F 26.1 °F 78% 30.16 in 10.0 mi NNE 5.8 mph - N/A   Overcast
8:55 AM 32.2 °F 26.7 °F 25.9 °F 78% 30.15 in 10.0 mi NE 5.8 mph - N/A   Mostly Cloudy
9:14 AM 32.4 °F 26.0 °F 26.1 °F 78% 30.15 in 10.0 mi NE 6.9 mph - N/A   Scattered Clouds
9:35 AM 33.3 °F 30.2 °F 26.2 °F 75% 30.15 in 10.0 mi NE 3.5 mph - N/A   Clear
9:55 AM 34.7 °F 30.6 °F 26.2 °F 71% 30.16 in 10.0 mi NNE 4.6 mph - N/A   Mostly Cloudy
10:15 AM 35.1 °F - 26.1 °F 70% 30.17 in 10.0 mi Calm Calm - N/A   Scattered Clouds
10:35 AM 36.3 °F 33.7 °F 25.9 °F 66% 30.17 in 10.0 mi ESE 3.5 mph - N/A   Mostly Cloudy
10:54 AM 36.9 °F - 26.2 °F 65% 30.17 in 10.0 mi Calm Calm - N/A   Overcast
11:15 AM 37.0 °F - 25.7 °F 64% 30.17 in 10.0 mi North - - N/A   Overcast
11:35 AM 37.8 °F 35.3 °F 26.2 °F 63% 30.17 in 10.0 mi NNE 3.5 mph - N/A   Scattered Clouds
11:54 AM 38.3 °F 35.9 °F 26.1 °F 61% 30.17 in 10.0 mi ENE 3.5 mph - N/A   Clear
12:15 PM 38.1 °F 33.7 °F 26.1 °F 62% 30.17 in 10.0 mi NE 5.8 mph - N/A   Clear
12:35 PM 38.7 °F 36.3 °F 26.2 °F 61% 30.17 in 10.0 mi NNE 3.5 mph - N/A   Scattered Clouds
12:54 PM 39.0 °F - 25.9 °F 59% 30.16 in 10.0 mi Calm Calm - N/A   Mostly Cloudy
1:15 PM 39.4 °F 37.2 °F 26.2 °F 59% 30.16 in 10.0 mi East 3.5 mph - N/A   Mostly Cloudy
1:35 PM 40.1 °F 36.1 °F 27.3 °F 60% 30.16 in 10.0 mi NW 5.8 mph - N/A   Mostly Cloudy
1:55 PM 37.9 °F 30.9 °F 27.3 °F 66% 30.16 in 10.0 mi West 10.4 mph 16.1 mph N/A   Overcast
2:15 PM 36.5 °F 30.3 °F 27.3 °F 69% 30.16 in 10.0 mi WNW 8.1 mph 16.1 mph N/A   Overcast
2:35 PM 36.5 °F 31.0 °F 27.3 °F 69% 30.16 in 10.0 mi NW 6.9 mph - N/A   Overcast
2:55 PM 36.9 °F 32.2 °F 27.1 °F 68% 30.16 in 10.0 mi NW 5.8 mph - N/A   Overcast
3:15 PM 36.7 °F 31.2 °F 26.8 °F 67% 30.17 in 10.0 mi NNW 6.9 mph - N/A   Overcast
3:34 PM 36.7 °F 31.2 °F 26.8 °F 67% 30.18 in 10.0 mi NW 6.9 mph - N/A   Overcast
3:55 PM 36.1 °F 31.4 °F 26.6 °F 68% 30.18 in 10.0 mi NW 5.8 mph - N/A   Overcast
4:15 PM 35.6 °F 30.7 °F 26.6 °F 70% 30.18 in 10.0 mi NNW 5.8 mph - N/A   Overcast
4:35 PM 35.4 °F - 26.4 °F 70% 30.18 in 10.0 mi Calm Calm - N/A   Overcast
4:55 PM 35.2 °F 32.4 °F 26.4 °F 70% 30.18 in 10.0 mi NNW 3.5 mph - N/A   Overcast
5:15 PM 35.2 °F 32.4 °F 26.4 °F 70% 30.18 in 10.0 mi North 3.5 mph - N/A   Overcast
5:35 PM 34.9 °F - 26.6 °F 72% 30.19 in 10.0 mi Calm Calm - N/A   Overcast
5:55 PM 34.7 °F - 26.4 °F 72% 30.19 in 10.0 mi Calm Calm - N/A   Overcast
6:15 PM 34.3 °F - 26.6 °F 73% 30.19 in 10.0 mi Calm Calm - N/A   Overcast
6:35 PM 33.8 °F - 26.2 °F 74% 30.20 in 10.0 mi Calm Calm - N/A   Overcast
6:54 PM 33.4 °F 30.4 °F 26.2 °F 75% 30.20 in 10.0 mi NNW 3.5 mph - N/A   Overcast
7:15 PM 32.9 °F 28.5 °F 26.6 °F 78% 30.21 in 10.0 mi NW 4.6 mph - N/A   Overcast
7:35 PM 32.4 °F - 27.1 °F 81% 30.21 in 7.0 mi Calm Calm - N/A   Overcast
7:54 PM 32.0 °F - 27.5 °F 83% 30.21 in 5.0 mi Calm Calm - N/A   Overcast
8:15 PM 32.0 °F - 28.0 °F 85% 30.21 in 4.0 mi Calm Calm - N/A   Overcast
8:34 PM 32.0 °F - 28.4 °F 87% 30.21 in 4.0 mi Calm Calm - N/A   Overcast
8:55 PM 32.0 °F - 28.9 °F 88% 30.22 in 5.0 mi Calm Calm - N/A   Overcast
9:35 PM 32.0 °F 27.5 °F 29.3 °F 90% 30.23 in 2.5 mi NW 4.6 mph - N/A   Overcast
9:55 PM 31.6 °F 25.1 °F 28.9 °F 90% 30.23 in 3.0 mi NNW 6.9 mph - N/A   Overcast
10:15 PM 31.1 °F 26.4 °F 27.3 °F 86% 30.24 in 7.0 mi North 4.6 mph - N/A   Overcast
10:35 PM 30.7 °F 24.1 °F 26.6 °F 85% 30.23 in 5.0 mi NNW 6.9 mph - N/A   Overcast
10:55 PM 30.2 °F 26.7 °F 26.2 °F 85% 30.24 in 10.0 mi NNW 3.5 mph - N/A   Overcast
11:14 PM 29.8 °F 21.5 °F 25.5 °F 84% 30.24 in 5.0 mi NNW 9.2 mph - N/A   Overcast
11:35 PM 29.3 °F 22.3 °F 24.8 °F 83% 30.25 in 7.0 mi NNW 6.9 mph - N/A   Overcast
11:54 PM 28.9 °F 21.9 °F 23.7 °F 81% 30.25 in 5.0 mi North 6.9 mph - N/A   Overcast